Back to catalog

CONNECTA IOT-5

AliveCommunicationsSSO
NORAD 62703·PAYLOAD·🇹🇷 Turkey

Launched Jan 14, 2025 from Vandenberg Space Force Base

Loading…

Next Passes (next 24 hours)

TLE

FreshSource: Space-Track

Epoch: Sep 14, 2026, 05:07 UTC

1 62703U 25009CY  26257.21335966  .00000779  00000-0  77703-4 0  9992
2 62703  97.6969 334.0896 0003406 121.3036 238.8518 14.94333163 90661

Track CONNECTA IOT-5 in real time with AllMySat

Download on the App Store